Location: Newark
(10.2350°N, 77.4860°E)
Time: 05:05:03
(UTC+00:00)

LightSail 2 - Visible Passes

Search period start: 17 October 2019 00:00
Search period end: 27 October 2019 00:00
Orbit: 707 x 722 km, 24.0° (Epoch: 16 October)

Date Brightness Start Highest point End Pass type
(mag) Time Alt. Az. Time Alt. Az. Time Alt. Az.
17 Oct 6.9 13:45:47 10° NW 13:49:21 18° N 13:50:26 17° NNE visible
18 Oct 7.1 12:48:10 10° NW 12:51:32 17° N 12:54:54 10° NE visible
18 Oct 7.2 14:33:27 10° NW 14:35:28 19° NNW 14:35:28 19° NNW visible
19 Oct 6.6 13:36:02 10° NW 13:40:05 23° NNE 13:41:31 20° NE visible
20 Oct 6.5 14:23:33 10° NW 14:26:37 30° NNW 14:26:37 30° NNW visible
21 Oct 6.2 13:26:07 10° NW 13:30:41 31° NNE 13:32:45 23° NE visible
21 Oct 7.9 15:11:15 10° WNW 15:11:47 13° WNW 15:11:47 13° WNW visible
22 Oct 5.5 14:13:41 10° WNW 14:18:00 56° NNW 14:18:00 56° NNW visible
23 Oct 5.5 13:16:10 10° NW 13:21:08 47° NNE 13:24:17 21° E visible
23 Oct 7.5 15:01:42 10° W 15:03:18 20° W 15:03:18 20° W visible
24 Oct 5.1 14:03:56 10° WNW 14:09:05 74° SSW 14:09:40 66° SSE visible
25 Oct 5.1 13:06:17 10° WNW 13:11:26 79° NNE 13:16:06 13° ESE visible
25 Oct 7.3 14:52:32 10° W 14:55:08 23° WSW 14:55:08 23° WSW visible
26 Oct 6.2 13:54:28 10° W 13:59:18 40° SSW 14:01:39 26° SSE visible
